Home   Weather   Bethlehem   Past weeks

Flag for Palestinian Territories Past Weather in Bethlehem, West Bank, Palestinian Territories — Yesterday and Last 2 Weeks

Now
68 °F

Clear.


Feels Like: 68 °F
Forecast: 55 / 77 °F
Wind: 3 mph from North

Location: Ben Gurion International Airport

Current Time: May 25, 2017 at 12:23:41 am

Latest Report: May 24, 2017 at 11:50 pm


Visibility: 10 mi

Pressure: 30.01 "Hg (27.49 "Hg at 753m altitude)

Humidity: 73%

Dew Point: 59 °F

Location of BethlehemLocation

Past Weather in Bethlehem — Graph

°F

Bethlehem Temperature Yesterday

Maximum temperature yesterday: 79 °F (at 1:20 pm)
Minimum temperature yesterday: 64 °F (at 4:50 am)
Average temperature yesterday: 72 °F

High & Low Weather Summary for the Past Weeks

 TemperatureHumidityPressure
High97 °F (May 10, 12:20 pm)88% (May 13, 4:20 am)30.04 "Hg (May 13, 4:20 am)
Low59 °F (May 22, 3:20 am)13% (May 10, 1:50 pm)29.65 "Hg (May 19, 1:20 am)
Average75 °F58%29.89 "Hg
* Reported May 9 10:20 pm — May 24 10:50 pm, Bethlehem. Weather by CustomWeather, © 2017

Note: Actual official high and low records may vary slightly from our data, if they occured in-between our weather recording intervals... More about our weather records

Advertising

Bethlehem Weather History for the Previous 24 Hours

Scroll right to see more
 ConditionsComfort  
Time TempWeatherWind HumidityBarometerVisibility
10:50 pm
Wed, May 24
68 °FClear.5 mph73%30.04 "Hg10 mi
10:20 pm70 °FClear.5 mph69%30.04 "Hg10 mi
9:50 pm70 °FClear.6 mph69%30.04 "Hg10 mi
9:20 pm70 °FClear.6 mph69%30.01 "Hg10 mi
8:50 pm70 °FClear.7 mph69%30.01 "Hg10 mi
8:20 pm72 °FClear.7 mph65%30.01 "Hg10 mi
7:50 pm72 °FClear.8 mph61%30.01 "Hg10 mi
7:20 pm73 °FSunny.8 mph57%30.01 "Hg10 mi
6:50 pm73 °FSunny.10 mph57%30.01 "Hg10 mi
6:20 pm73 °FSunny.12 mph57%29.98 "Hg10 mi
5:50 pm75 °FSunny.12 mph50%29.98 "Hg10 mi
5:20 pm77 °FSunny.13 mph44%29.98 "Hg10 mi
4:50 pm77 °FSunny.13 mph44%29.98 "Hg10 mi
4:20 pm77 °FSunny.12 mph44%29.98 "Hg10 mi
3:50 pm79 °FPassing clouds.12 mph34%29.98 "HgN/A
3:20 pm79 °FPassing clouds.13 mph37%29.98 "HgN/A
2:50 pm79 °FPassing clouds.12 mph39%30.01 "HgN/A
2:20 pm79 °FPassing clouds.13 mph39%30.01 "HgN/A
1:50 pm79 °FPassing clouds.13 mph42%30.01 "HgN/A
1:20 pm79 °FPassing clouds.9 mph45%30.01 "HgN/A
12:50 pm77 °FPassing clouds.8 mph47%30.01 "HgN/A
12:20 pm77 °FScattered clouds.8 mph47%30.01 "HgN/A
11:50 am75 °FScattered clouds.6 mph50%30.04 "HgN/A
11:20 am75 °FScattered clouds.7 mph50%30.04 "HgN/A
10:50 am75 °FScattered clouds.7 mph50%30.04 "HgN/A
10:20 am75 °FScattered clouds.8 mph54%30.04 "HgN/A
9:50 am75 °FScattered clouds.6 mph54%30.04 "HgN/A
9:20 am73 °FScattered clouds.3 mph57%30.04 "HgN/A
8:50 am73 °FScattered clouds.5 mph61%30.04 "HgN/A
8:20 am72 °FScattered clouds.6 mph65%30.04 "HgN/A
7:50 am70 °FPassing clouds.6 mph69%30.04 "HgN/A
7:20 am68 °FPassing clouds.6 mph73%30.04 "HgN/A
6:50 am66 °FPassing clouds.5 mph78%30.04 "HgN/A
6:20 am64 °FScattered clouds.5 mph78%30.01 "HgN/A
5:50 am64 °FScattered clouds.6 mph78%30.01 "HgN/A
5:20 am64 °FPassing clouds.7 mph78%30.01 "HgN/A
4:50 am64 °FPassing clouds.7 mph78%29.98 "HgN/A
4:20 am66 °FPassing clouds.7 mph73%29.98 "HgN/A
3:50 am66 °FPassing clouds.5 mph73%29.98 "HgN/A
3:20 am66 °FPassing clouds.5 mph73%29.98 "HgN/A
2:50 am66 °FPassing clouds.3 mph73%29.98 "HgN/A
2:20 am66 °FPassing clouds.7 mph73%30.01 "HgN/A
1:50 am66 °FPassing clouds.N/A73%30.01 "HgN/A
1:20 am68 °FPassing clouds.3 mph73%30.01 "HgN/A
12:50 am68 °FPassing clouds.2 mph73%30.01 "HgN/A
Weather by CustomWeather, © 2017

See weather overviewHow to use our weather pages